• MPC Preparation (Info)

  • MPEC 2016-O10 : 2014 YX49

    The following Minor Planet Electronic Circular may be linked-to from your own Web pages, but must not otherwise be redistributed electronically.

    A form allowing access to any MPEC is at the bottom of this page.


    Read MPEC 2016-O09 Read MPEC 2016-O11


    M.P.E.C. 2016-O10                                Issued 2016 July 16, 00:23 UT
    
         The Minor Planet Electronic Circulars contain information on unusual
             minor planets and routine data on comets.  They are published
        on behalf of Division F of the International Astronomical Union by the
              Minor Planet Center, Smithsonian Astrophysical Observatory,
                              Cambridge, MA 02138, U.S.A.
    
                 Prepared using the Tamkin Foundation Computer Network
    
                                  MPC@CFA.HARVARD.EDU
                URL https://www.minorplanetcenter.net/    ISSN 1523-6714
    
                                       2014 YX49
    
    Observations:
         K14Y49X  C2013 12 26.37836 07 08 07.255+29 01 07.67         21.1 wLEO010F51
         K14Y49X  C2013 12 26.39379 07 08 07.062+29 01 08.39         21.1 wLEO010F51
         K14Y49X  C2013 12 26.40923 07 08 06.866+29 01 08.92         21.2 wLEO010F51
         K14Y49X  C2014 01 24.29818 07 02 11.540+29 18 46.71         21.1 wLEO010F51
         K14Y49X  C2014 01 24.30943 07 02 11.411+29 18 47.03         21.1 wLEO010F51
         K14Y49X  C2014 01 24.32067 07 02 11.275+29 18 47.23         21.1 wLEO010F51
         K14Y49X  C2014 01 24.33193 07 02 11.145+29 18 47.71         21.2 wLEO010F51
         K14Y49X* C2014 12 26.52438 07 29 22.659+30 24 00.37         21.4 wLEO010F51
         K14Y49X  C2014 12 26.53669 07 29 22.518+30 24 00.99         21.3 wLEO010F51
         K14Y49X  C2014 12 26.54897 07 29 22.366+30 24 01.69         21.1 wLEO010F51
         K14Y49X  C2014 12 26.56134 07 29 22.224+30 24 02.26         21.2 wLEO010F51
         K14Y49X  C2015 01 20.32695 07 24 19.813+30 42 08.90         21.2 wLEO010F51
         K14Y49X  C2015 01 20.33888 07 24 19.670+30 42 09.37         21.2 wLEO010F51
         K14Y49X  C2015 01 20.35080 07 24 19.525+30 42 09.79         21.1 wLEO010F51
         K14Y49X  C2015 01 20.36273 07 24 19.374+30 42 10.22         21.2 wLEO010F51
         K14Y49X  C2015 01 28.29119 07 22 45.312+30 46 32.71         21.1 rLEO010F51
         K14Y49X  C2015 01 28.30367 07 22 45.169+30 46 33.05         21.3 rLEO010F51
         K14Y49X  C2015 01 28.31586 07 22 45.028+30 46 33.53         21.2 rLEO010F51
         K14Y49X  C2015 01 28.32810 07 22 44.879+30 46 33.80         21.1 rLEO010F51
    
    Observer details:
    F51 Pan-STARRS 1, Haleakala.  Observers B. Gibson, T. Goggia, N. Primak,
        A. Schultz, M. Willman.  Measurers K. Chambers, S. Chastel, Y.-T. Chen,
        L. Denneau, H. Flewelling, M. Holman, M. Huber, R. Jedicke, M. Lackner,
        E. Lilly, H.-W. Lin, E. Magnier, M. Micheli, M. Payne, P. Veres,
        R. Wainscoat, C. Waters, R. Weryk.  1.8-m Ritchey-Chretien + CCD.
    
    Orbital elements:
    2014 YX49
    Epoch 2016 July 31.0 TT = JDT 2457600.5                 MPC
    M  73.01399              (2000.0)            P               Q
    n   0.01176093     Peri.  280.77410     +0.88141404     -0.19318340
    a  19.1502723      Node    91.43304     +0.36028109     +0.86509515
    e   0.2767991      Incl.   25.54170     -0.30546165     +0.46291528
    P  83.80           H    8.5           G   0.15           U   3
    Residuals in seconds of arc
    131226 F51  0.0   0.0     141226 F51  0.1-  0.0     150120 F51  0.0   0.0
    131226 F51  0.0   0.0     141226 F51  0.0   0.0     150128 F51  0.1-  0.0
    131226 F51  0.1-  0.1-    141226 F51  0.0   0.1+    150128 F51  0.0   0.0
    140124 F51  0.0   0.1+    141226 F51  0.0   0.0     150128 F51  0.0   0.1+
    140124 F51  0.0   0.1+    150120 F51  0.0   0.0     150128 F51  0.1-  0.0
    140124 F51  0.0   0.1-    150120 F51  0.1+  0.0
    140124 F51  0.0   0.1+    150120 F51  0.1+  0.0
    
    Ephemeris:
    2014 YX49                a,e,i = 19.15, 0.28, 26                 q = 13.849
    Date    TT    R. A. (2000) Decl.     Delta      r     Elong.  Phase     V
    2016 06 16    07 47 15.2 +31 26 36  19.8731 18.9964    29.6     1.5    21.6
    ...
    2016 07 01    07 51 05.2 +31 18 31  19.9793 19.0128    17.6     0.9    21.5
    ...
    2016 07 09    07 53 13.4 +31 14 33  20.0129 19.0216    12.5     0.7    21.5
    ...
    2016 07 15    07 54 50.9 +31 11 49  20.0271 19.0281    10.4     0.6    21.5
    2016 07 16    07 55 07.1 +31 11 22  20.0286 19.0292    10.2     0.5    21.5
    2016 07 17    07 55 23.4 +31 10 57  20.0298 19.0303    10.2     0.5    21.5
    ...
    2016 07 23    07 57 01.2 +31 08 30  20.0315 19.0369    11.5     0.6    21.5
    ...
    2016 07 31    07 59 10.7 +31 05 39  20.0192 19.0456    16.0     0.8    21.5
    ...
    2016 08 15    08 03 05.8 +31 01 48  19.9523 19.0620    27.8     1.4    21.6
    
    A. U. Tomatic                (C) Copyright 2016 MPC           M.P.E.C. 2016-O10
    

    Read MPEC 2016-O09 Read MPEC 2016-O11


    MPEC number:

    Enter an MPEC number in one of the following forms:

    • 1997-B01 (the full form)
    • J97B01 (the packed version of the full form)
    • B01 (the abbreviated form)